THOR BURNER 2 R/B, 3271

Orbit data source: Space-Track

THOR BURNER 2 R/B, 3271 is space debris in SSO originally from a launch on Thu, 23 May 1968 UTC launched from the Air Force Western Test Range (AFWTR). Debris objects in space refer to the collection of defunct objects orbiting the Earth. Examples of debris include non-operational satellites, rocket bodies, and fragments generated from explosions, collisions, or faulty payload assembly.

Loading next visibility...
Identifier
3271, 1968-042B
Orbit
SSO
Country
Flag of USUS
Related business
Manufacturer
Thiokol/TE
Mission
Spacecraft
Bus & Motor
STAR 37, Unknown motor
Mass
154 kg wet, 154 kg dry
Launch date (UTC)
1968-05-23 (57 years ago)
Launch vehicle
Unknown
Launch site
Air Force Western Test Range (AFWTR)
Object type
Payload
Rocket body
Debris
Shape & HBR
Unknown
Radar Cross Section
Large (>1 m²)

Expand to show TLE details & history
Last TLE update: 7 hours ago

TLE from 7 hours ago
0 THOR BURNER 2 R/B
1  3271U 68042B   25308.47734088  .00000158  00000-0  97018-4 0  9995
2  3271  98.5582 125.8086 0052556 117.3237 243.3302 14.17537675964988
Epoch: 2025-11-04T11:27Z
TLE epoch observation values (Epoch: 2025-11-04T11:27:22.252Z)
Latitude
-0.00008°
Longitude
-89.99791°
Altitude
853.783 km
Speed
7.417 km/s
True Right ascension
08h 23m 14s
True Declination
0° 00' 00"
Sunlit
Object was in daylight at epoch
Visualization orbit readout
Latitude
Unknown
Longitude
Unknown
Altitude
Unknown
Speed
Unknown
Apparent Right ascension
Unknown
Apparent Declination
Unknown
Sunlit
N/A
Visualization observer readout
Local Sidereal Time
14:28:55
Azimuth
Unknown
Elevation
Unknown
Doppler factor
Unknown
Orbital elements
Apogee altitude
868.734 km
Perigee altitude
792.959 km
Semi-major axis
7,208.984 km
Eccentricity
0.00526
Inclination
98.5582°
RAAN
125.8086°
Arg. of periapsis
117.3237°
True anomaly
242.79362°
Mean anomaly
243.3302°
Eccentric anomaly
243.06175°
Mean motion
3.54595 °/min
Orbital period
101.52 mins
BSTAR
0.000097018
Loading maneuver chart data...
Computing Atmospheric mass density...
Loading historical data...
Loading historical data...
Loading historical data...
Loading historical data...
Loading historical data...
Loading historical data...
Loading historical data...
Other satellites on launch #42 in the year 1968 (1968-05-23 UTC)

Documentation

Showing up to 5 results
|